TimeMDT,TemperatureF,Dew PointF,Humidity,Sea Level PressureIn,VisibilityMPH,Wind Direction,Wind SpeedMPH,Gust SpeedMPH,PrecipitationIn,Events,Conditions,WindDirDegrees,DateUTC
12:15 AM,43.9,35.2,72,29.95,10.0,SW,3.5,-,N/A,,Clear,230,2012-10-11 06:15:00
12:55 AM,43.3,35.8,75,29.94,10.0,Calm,Calm,-,N/A,,Clear,0,2012-10-11 06:55:00
1:15 AM,43.5,35.6,74,29.94,10.0,Calm,Calm,-,N/A,,Clear,0,2012-10-11 07:15:00
1:55 AM,40.8,34.9,79,29.94,10.0,Calm,Calm,-,N/A,,Clear,0,2012-10-11 07:55:00
2:15 AM,39.2,34.2,82,29.94,10.0,Calm,Calm,-,N/A,,Clear,0,2012-10-11 08:15:00
2:35 AM,37.8,33.8,86,29.94,10.0,Calm,Calm,-,N/A,,Clear,0,2012-10-11 08:35:00
2:55 AM,37.2,33.4,86,29.93,10.0,Calm,Calm,-,N/A,,Clear,0,2012-10-11 08:55:00
3:15 AM,38.7,34.0,83,29.92,10.0,Calm,Calm,-,N/A,,Clear,0,2012-10-11 09:15:00
3:35 AM,38.3,34.2,85,29.92,10.0,Calm,Calm,-,N/A,,Clear,0,2012-10-11 09:35:00
3:55 AM,38.5,34.7,86,29.92,10.0,SW,3.5,-,N/A,,Clear,230,2012-10-11 09:55:00
4:15 AM,39.4,35.6,86,29.93,10.0,Calm,Calm,-,N/A,,Clear,0,2012-10-11 10:15:00
4:35 AM,40.3,36.3,86,29.94,10.0,Calm,Calm,-,N/A,,Clear,0,2012-10-11 10:35:00
4:55 AM,41.0,36.1,83,29.94,10.0,Calm,Calm,-,N/A,,Clear,0,2012-10-11 10:55:00
5:15 AM,40.6,36.3,85,29.96,10.0,Calm,Calm,-,N/A,,Clear,0,2012-10-11 11:15:00
5:35 AM,43.5,38.3,82,30.00,10.0,NW,3.5,-,N/A,,Clear,320,2012-10-11 11:35:00
5:55 AM,45.7,39.2,78,30.00,10.0,East,4.6,-,N/A,,Clear,80,2012-10-11 11:55:00
6:35 AM,46.8,37.8,71,30.02,10.0,NE,12.7,-,N/A,,Clear,40,2012-10-11 12:35:00
6:55 AM,46.4,35.8,67,30.03,10.0,NE,17.3,21.9,N/A,,Clear,40,2012-10-11 12:55:00
7:15 AM,45.7,35.6,68,30.04,10.0,ENE,9.2,-,N/A,,Clear,60,2012-10-11 13:15:00
7:35 AM,45.5,35.1,67,30.07,10.0,NNE,15.0,-,N/A,,Clear,30,2012-10-11 13:35:00
7:55 AM,46.0,35.2,66,30.08,10.0,NE,18.4,21.9,N/A,,Clear,40,2012-10-11 13:55:00
8:15 AM,47.3,35.6,64,30.09,10.0,NNE,15.0,-,N/A,,Clear,30,2012-10-11 14:15:00
8:35 AM,47.3,35.4,63,30.10,10.0,NNE,16.1,21.9,N/A,,Scattered Clouds,30,2012-10-11 14:35:00
8:55 AM,46.9,35.1,63,30.11,10.0,NE,16.1,24.2,N/A,,Scattered Clouds,40,2012-10-11 14:55:00
9:15 AM,48.4,35.6,61,30.13,10.0,NNE,16.1,-,N/A,,Scattered Clouds,30,2012-10-11 15:15:00
9:35 AM,48.4,35.6,61,30.13,10.0,NNE,19.6,24.2,N/A,,Scattered Clouds,20,2012-10-11 15:35:00
9:55 AM,48.6,34.7,59,30.14,10.0,NNE,21.9,27.6,N/A,,Scattered Clouds,20,2012-10-11 15:55:00
10:15 AM,49.6,34.7,56,30.14,10.0,NNE,18.4,25.3,N/A,,Clear,30,2012-10-11 16:15:00
10:35 AM,49.5,34.2,56,30.15,10.0,NE,19.6,25.3,N/A,,Clear,40,2012-10-11 16:35:00
10:55 AM,49.8,34.0,55,30.17,10.0,NE,17.3,-,N/A,,Clear,40,2012-10-11 16:55:00
11:15 AM,50.0,33.8,54,30.17,10.0,NNE,20.7,-,N/A,,Clear,30,2012-10-11 17:15:00
11:55 AM,51.8,32.9,49,30.18,10.0,NE,17.3,25.3,N/A,,Clear,40,2012-10-11 17:55:00
12:15 PM,52.7,32.4,46,30.18,10.0,NE,17.3,-,N/A,,Clear,40,2012-10-11 18:15:00
12:35 PM,53.4,32.2,44,30.18,10.0,NE,16.1,24.2,N/A,,Clear,40,2012-10-11 18:35:00
12:55 PM,53.6,32.4,44,30.18,10.0,NE,18.4,24.2,N/A,,Clear,40,2012-10-11 18:55:00
1:15 PM,53.2,32.0,44,30.18,10.0,NE,18.4,25.3,N/A,,Clear,40,2012-10-11 19:15:00
1:35 PM,53.6,32.0,44,30.18,10.0,NNE,17.3,24.2,N/A,,Clear,30,2012-10-11 19:35:00
1:55 PM,53.2,31.8,44,30.18,10.0,NNE,17.3,26.5,N/A,,Clear,30,2012-10-11 19:55:00
2:15 PM,53.6,31.6,43,30.18,10.0,NE,18.4,24.2,N/A,,Clear,40,2012-10-11 20:15:00
2:55 PM,54.7,31.6,42,30.18,10.0,ENE,18.4,24.2,N/A,,Clear,60,2012-10-11 20:55:00
3:15 PM,54.0,30.9,41,30.19,10.0,NE,17.3,-,N/A,,Clear,50,2012-10-11 21:15:00
3:35 PM,53.4,30.2,41,30.20,10.0,NE,16.1,25.3,N/A,,Clear,50,2012-10-11 21:35:00
4:15 PM,53.1,29.3,40,30.20,10.0,ENE,13.8,-,N/A,,Clear,60,2012-10-11 22:15:00
4:35 PM,52.9,29.1,40,30.21,10.0,ENE,12.7,-,N/A,,Clear,60,2012-10-11 22:35:00
4:55 PM,52.5,28.4,39,30.21,10.0,NE,13.8,20.7,N/A,,Clear,50,2012-10-11 22:55:00
5:35 PM,50.7,28.4,42,30.22,10.0,ENE,13.8,-,N/A,,Clear,60,2012-10-11 23:35:00
5:55 PM,50.0,28.6,44,30.22,10.0,ENE,9.2,-,N/A,,Clear,60,2012-10-11 23:55:00
6:15 PM,48.7,28.4,45,30.23,10.0,ENE,9.2,-,N/A,,Clear,60,2012-10-12 00:15:00
6:35 PM,48.2,28.4,46,30.24,10.0,ENE,9.2,-,N/A,,Clear,70,2012-10-12 00:35:00
6:55 PM,47.3,28.0,47,30.26,10.0,ENE,9.2,-,N/A,,Clear,60,2012-10-12 00:55:00
7:15 PM,45.9,27.7,49,30.27,10.0,ENE,10.4,-,N/A,,Clear,70,2012-10-12 01:15:00
7:35 PM,44.8,27.5,51,30.28,10.0,ENE,10.4,-,N/A,,Clear,70,2012-10-12 01:35:00
7:55 PM,44.4,27.3,51,30.28,10.0,East,6.9,-,N/A,,Clear,80,2012-10-12 01:55:00
8:15 PM,43.5,27.3,53,30.29,10.0,East,8.1,-,N/A,,Clear,80,2012-10-12 02:15:00
8:35 PM,42.6,26.8,54,30.29,10.0,East,8.1,-,N/A,,Clear,80,2012-10-12 02:35:00
8:55 PM,41.4,26.6,56,30.30,10.0,East,8.1,-,N/A,,Clear,80,2012-10-12 02:55:00
9:15 PM,40.8,26.4,57,30.31,10.0,ENE,8.1,-,N/A,,Clear,70,2012-10-12 03:15:00
9:35 PM,41.2,26.1,55,30.32,10.0,East,8.1,-,N/A,,Clear,80,2012-10-12 03:35:00
9:55 PM,40.3,25.7,56,30.32,10.0,East,9.2,-,N/A,,Clear,90,2012-10-12 03:55:00
10:15 PM,39.9,25.5,56,30.32,10.0,East,10.4,-,N/A,,Clear,80,2012-10-12 04:15:00
10:35 PM,39.2,25.2,57,30.32,10.0,East,9.2,-,N/A,,Clear,90,2012-10-12 04:35:00
10:55 PM,38.5,25.5,60,30.32,10.0,East,6.9,-,N/A,,Clear,90,2012-10-12 04:55:00
11:15 PM,37.8,25.7,62,30.32,10.0,East,5.8,-,N/A,,Clear,90,2012-10-12 05:15:00
11:35 PM,36.5,26.1,66,30.33,10.0,East,4.6,-,N/A,,Clear,100,2012-10-12 05:35:00
11:55 PM,35.1,26.1,70,30.33,10.0,East,3.5,-,N/A,,Clear,100,2012-10-12 05:55:00